Regional Weather Roundup
Issued by NWS

Home | Current Version | Previous Version | Text Only | Print | Product List | Glossary On
Versions: 1 2 3 4 5 6 7 8 9 10 11 12 13 14 15 16 17 18 19 20 21 22 23 24 25 26 27 28
000
ASCA42 TJSJ 310210
RWRPR
PUERTO RICO/U.S. VIRGIN ISLANDS HOURLY WEATHER ROUNDUP
NATIONAL WEATHER SERVICE SAN JUAN PR
1000 PM AST SAT JUL 30 2016

PRZ001-004-310300-
PUERTO RICO

CITY           SKY/WX    TMP DP  RH WIND       PRES   REMARKS
SAN JUAN LMM   LGT RAIN  82  79  89 E13       30.01R HX  93
CEIBA          CLOUDY    82  79  89 NE14G20   30.02R HX  93
$$

PRZ006-007-310300-
U.S. VIRGIN ISLANDS

CITY           SKY/WX    TMP DP  RH WIND       PRES   REMARKS
CHARLOTTE AMA  PTCLDY    84  79  84 E17G23    29.98R HX  96
CHRISTIANSTED  PTCLDY    82  79  89 E13       29.98R HX  93
$$

HOURLY WEATHER ROUNDUP FOR THE NEWS MEDIA

CITY           SKY/WX    TMP DP  RH WIND       PRES   REMARKS
ORLANDO        LGT RAIN  80  73  79 SE6       30.06R
NEW YORK       LGT RAIN  76  72  87 E5        30.06R
NEWARK         LGT RAIN  74  73  97 SE5       30.04R
CHICAGO        MOCLDY    71  64  78 NE8       29.99S
HARTFORD       CLOUDY    74  70  87 S8        30.08R
BOSTON         CLOUDY    71  68  90 E8        30.06R
DALLAS         PTCLDY    93  68  43 SE18      29.91R HX  97
PHILADELPHIA   LGT RAIN  76  73  91 SE8       30.02R
LOS ANGELES    MOSUNNY   72  65  78 W9        29.83S
WASHINGTON DC  MOCLDY    72  71  97 SE3       29.97F



USA.gov is the U.S. government's official web portal to all federal, state and local government web resources and services.